When you browse on this site, cookies collect data to enhance your experience and personalize the content and advertising you see.
Visit our Privacy Policy to learn more. By continuing to use the site, you agree to this use of cookies and data.
  • In Österreich
  • Länderverzeichnis
  • Für 7 Tage
  • Wassertemperatur
  • Wetterkarte
  • News
  • Widgets
  • user-avatar
    Anmelden

    Stündliche Wetter Pacho

    Heute, 11 Dezember, Mittwoch

    Zeit Temperatur Niederschläge Wind Luftdruck Luftfeuchtigkeit
    00:00 +15°C° 0.3 mm 1 m/S 611 mmHg 95%
    01:00 +15°C° 0.3 mm 1 m/S 611 mmHg 95%
    02:00 +15°C° 0.1 mm 1 m/S 611 mmHg 95%
    03:00 +15°C° 0.1 mm 1 m/S 611 mmHg 94%
    04:00 +15°C° 0.1 mm 1 m/S 610 mmHg 93%
    05:00 +15°C° 0 mm 1 m/S 611 mmHg 93%
    06:00 +16°C° 0 mm 1 m/S 612 mmHg 92%
    07:00 +16°C° 0 mm 1 m/S 612 mmHg 91%
    08:00 +19°C° 0.1 mm 1 m/S 613 mmHg 85%
    09:00 +21°C° 0.1 mm 1 m/S 614 mmHg 80%
    10:00 +23°C° 0.1 mm 1 m/S 615 mmHg 74%
    11:00 +22°C° 0.8 mm 1 m/S 614 mmHg 79%
    12:00 +22°C° 0.8 mm 1 m/S 613 mmHg 84%
    13:00 +22°C° 0.8 mm 1 m/S 612 mmHg 89%
    14:00 +21°C° 1.2 mm 1 m/S 611 mmHg 90%
    15:00 +21°C° 1.2 mm 1 m/S 611 mmHg 92%
    16:00 +21°C° 1.2 mm 1 m/S 610 mmHg 94%
    17:00 +20°C° 0.6 mm 1 m/S 610 mmHg 95%
    18:00 +19°C° 0.6 mm 1 m/S 610 mmHg 96%
    19:00 +18°C° 0.6 mm 1 m/S 610 mmHg 97%
    20:00 +16°C° 0.1 mm 1 m/S 611 mmHg 96%
    21:00 +16°C° 0.1 mm 1 m/S 611 mmHg 95%
    22:00 +15°C° 0.1 mm 1 m/S 611 mmHg 94%
    23:00 +15°C° 0.1 mm 1 m/S 611 mmHg 94%

    Morgen, 12 Dezember, Donnerstag

    Zeit Temperatur Niederschläge Wind Luftdruck Luftfeuchtigkeit
    00:00 +15°C° 0.1 mm 1 m/S 611 mmHg 94%
    01:00 +15°C° 0.1 mm 1 m/S 610 mmHg 94%
    02:00 +15°C° 0.2 mm 1 m/S 610 mmHg 94%
    03:00 +14°C° 0.2 mm 0 m/S 610 mmHg 95%
    04:00 +14°C° 0.2 mm 0 m/S 610 mmHg 96%
    05:00 +14°C° 0.2 mm 0 m/S 611 mmHg 95%
    06:00 +15°C° 0.2 mm 0 m/S 611 mmHg 95%
    07:00 +15°C° 0.2 mm 0 m/S 612 mmHg 94%
    08:00 +16°C° 0.3 mm 0 m/S 612 mmHg 93%
    09:00 +17°C° 0.3 mm 0 m/S 612 mmHg 92%
    10:00 +19°C° 0.3 mm 1 m/S 613 mmHg 91%
    11:00 +20°C° 0.5 mm 1 m/S 612 mmHg 87%
    12:00 +21°C° 0.5 mm 1 m/S 612 mmHg 83%
    13:00 +22°C° 0.5 mm 1 m/S 612 mmHg 79%
    14:00 +22°C° 0.6 mm 1 m/S 611 mmHg 83%
    15:00 +21°C° 0.6 mm 1 m/S 610 mmHg 87%
    16:00 +21°C° 0.6 mm 1 m/S 610 mmHg 91%
    17:00 +19°C° 0.5 mm 1 m/S 610 mmHg 93%
    18:00 +18°C° 0.5 mm 1 m/S 610 mmHg 95%
    19:00 +16°C° 0.5 mm 1 m/S 610 mmHg 96%
    20:00 +16°C° 0.1 mm 1 m/S 610 mmHg 96%
    21:00 +15°C° 0.1 mm 1 m/S 610 mmHg 95%
    22:00 +15°C° 0.1 mm 1 m/S 611 mmHg 94%
    23:00 +14°C° 0 mm 1 m/S 611 mmHg 94%

    übermorgen, 13 Dezember, Freitag

    Zeit Temperatur Niederschläge Wind Luftdruck Luftfeuchtigkeit
    00:00 +14°C° 0 mm 1 m/S 610 mmHg 93%
    01:00 +14°C° 0 mm 1 m/S 610 mmHg 93%
    02:00 +13°C° 0.1 mm 0 m/S 610 mmHg 92%
    03:00 +13°C° 0.1 mm 0 m/S 610 mmHg 92%
    04:00 +13°C° 0.1 mm 0 m/S 610 mmHg 91%
    05:00 +14°C° 0 mm 0 m/S 610 mmHg 90%
    06:00 +14°C° 0 mm 0 m/S 611 mmHg 89%
    07:00 +15°C° 0 mm 0 m/S 611 mmHg 88%
    08:00 +19°C° 0 mm 1 m/S 612 mmHg 81%
    09:00 +21°C° 0 mm 1 m/S 613 mmHg 74%
    10:00 +23°C° 0 mm 1 m/S 614 mmHg 68%
    11:00 +23°C° 0.3 mm 1 m/S 613 mmHg 70%
    12:00 +23°C° 0.3 mm 2 m/S 613 mmHg 72%
    13:00 +23°C° 0.3 mm 2 m/S 612 mmHg 74%
    14:00 +21°C° 0.5 mm 2 m/S 611 mmHg 80%
    15:00 +21°C° 0.5 mm 1 m/S 611 mmHg 86%
    16:00 +21°C° 0.5 mm 1 m/S 610 mmHg 91%
    17:00 +19°C° 0.3 mm 1 m/S 610 mmHg 93%
    18:00 +18°C° 0.3 mm 1 m/S 610 mmHg 95%
    19:00 +15°C° 0.3 mm 0 m/S 610 mmHg 96%
    20:00 +16°C° 0.1 mm 1 m/S 610 mmHg 95%
    21:00 +15°C° 0.1 mm 1 m/S 611 mmHg 93%
    22:00 +15°C° 0.1 mm 1 m/S 611 mmHg 91%
    23:00 +15°C° 0 mm 1 m/S 611 mmHg 89%

    14 Dezember, Samstag

    Zeit Temperatur Niederschläge Wind Luftdruck Luftfeuchtigkeit
    00:00 +15°C° 0 mm 1 m/S 610 mmHg 87%
    01:00 +14°C° 0 mm 0 m/S 610 mmHg 85%
    02:00 +14°C° 0 mm 0 m/S 610 mmHg 87%
    03:00 +14°C° 0 mm 0 m/S 610 mmHg 88%
    04:00 +13°C° 0 mm 0 m/S 610 mmHg 89%
    05:00 +14°C° 0 mm 0 m/S 611 mmHg 89%
    06:00 +14°C° 0 mm 0 m/S 611 mmHg 88%
    07:00 +15°C° 0 mm 0 m/S 612 mmHg 88%
    08:00 +16°C° 0 mm 0 m/S 612 mmHg 82%
    09:00 +18°C° 0 mm 0 m/S 613 mmHg 76%
    10:00 +21°C° 0 mm 1 m/S 614 mmHg 70%
    11:00 +22°C° 0.1 mm 1 m/S 613 mmHg 70%
    12:00 +22°C° 0.1 mm 1 m/S 613 mmHg 69%
    13:00 +23°C° 0.1 mm 2 m/S 612 mmHg 69%
    14:00 +22°C° 0.6 mm 1 m/S 612 mmHg 77%
    15:00 +21°C° 0.6 mm 1 m/S 611 mmHg 84%
    16:00 +20°C° 0.6 mm 1 m/S 610 mmHg 92%
    17:00 +20°C° 0.7 mm 1 m/S 611 mmHg 94%
    18:00 +17°C° 0.7 mm 0 m/S 611 mmHg 96%
    19:00 +16°C° 0.7 mm 0 m/S 611 mmHg 98%
    20:00 +16°C° 0.3 mm 0 m/S 612 mmHg 98%
    21:00 +15°C° 0.3 mm 0 m/S 612 mmHg 97%
    22:00 +15°C° 0.3 mm 0 m/S 612 mmHg 97%
    23:00 +15°C° 0.1 mm 0 m/S 612 mmHg 97%

    15 Dezember, Sonntag

    Zeit Temperatur Niederschläge Wind Luftdruck Luftfeuchtigkeit
    00:00 +14°C° 0.1 mm 0 m/S 612 mmHg 96%
    01:00 +15°C° 0.1 mm 1 m/S 611 mmHg 96%
    02:00 +15°C° 0.1 mm 1 m/S 611 mmHg 96%
    03:00 +15°C° 0.1 mm 1 m/S 611 mmHg 96%
    04:00 +14°C° 0.1 mm 1 m/S 610 mmHg 95%
    05:00 +14°C° 0 mm 0 m/S 611 mmHg 94%
    06:00 +14°C° 0 mm 0 m/S 612 mmHg 93%
    07:00 +15°C° 0 mm 0 m/S 612 mmHg 93%
    08:00 +19°C° 0.1 mm 1 m/S 613 mmHg 87%
    09:00 +21°C° 0.1 mm 1 m/S 614 mmHg 81%
    10:00 +22°C° 0.1 mm 1 m/S 615 mmHg 75%
    11:00 +22°C° 0.6 mm 1 m/S 614 mmHg 78%
    12:00 +22°C° 0.6 mm 1 m/S 613 mmHg 81%
    13:00 +22°C° 0.6 mm 1 m/S 612 mmHg 84%
    14:00 +21°C° 1 mm 1 m/S 612 mmHg 87%
    15:00 +21°C° 1 mm 1 m/S 611 mmHg 89%
    16:00 +19°C° 1 mm 0 m/S 611 mmHg 92%
    17:00 +18°C° 0.8 mm 0 m/S 611 mmHg 94%
    18:00 +17°C° 0.8 mm 0 m/S 611 mmHg 95%
    19:00 +16°C° 0.8 mm 0 m/S 611 mmHg 97%
    20:00 +16°C° 0.6 mm 0 m/S 612 mmHg 97%
    21:00 +16°C° 0.6 mm 0 m/S 612 mmHg 97%
    22:00 +15°C° 0.6 mm 0 m/S 612 mmHg 96%
    23:00 +15°C° 0.7 mm 0 m/S 612 mmHg 96%

    16 Dezember, Montag

    Zeit Temperatur Niederschläge Wind Luftdruck Luftfeuchtigkeit
    00:00 +15°C° 0.7 mm 0 m/S 612 mmHg 96%
    01:00 +15°C° 0.7 mm 0 m/S 612 mmHg 97%
    02:00 +15°C° 0.6 mm 0 m/S 611 mmHg 96%
    03:00 +16°C° 0.6 mm 1 m/S 611 mmHg 96%
    04:00 +16°C° 0.6 mm 1 m/S 611 mmHg 96%
    05:00 +15°C° 0.1 mm 0 m/S 611 mmHg 95%
    06:00 +15°C° 0.1 mm 0 m/S 612 mmHg 94%
    07:00 +15°C° 0.1 mm 0 m/S 612 mmHg 93%
    08:00 +17°C° 0.1 mm 0 m/S 613 mmHg 88%
    09:00 +21°C° 0.1 mm 1 m/S 614 mmHg 82%
    10:00 +22°C° 0.1 mm 1 m/S 614 mmHg 76%
    11:00 +22°C° 0.5 mm 1 m/S 614 mmHg 77%
    12:00 +23°C° 0.5 mm 1 m/S 613 mmHg 78%
    13:00 +23°C° 0.5 mm 1 m/S 612 mmHg 79%
    14:00 +22°C° 0.9 mm 1 m/S 612 mmHg 83%
    15:00 +22°C° 0.9 mm 1 m/S 611 mmHg 88%
    16:00 +21°C° 0.9 mm 1 m/S 610 mmHg 92%
    17:00 +20°C° 0.8 mm 1 m/S 610 mmHg 94%
    18:00 +17°C° 0.8 mm 0 m/S 610 mmHg 95%
    19:00 +16°C° 0.8 mm 0 m/S 610 mmHg 97%
    20:00 +16°C° 0.8 mm 0 m/S 611 mmHg 97%
    21:00 +16°C° 0.8 mm 0 m/S 611 mmHg 97%
    22:00 +16°C° 0.8 mm 1 m/S 612 mmHg 96%
    23:00 +16°C° 0.8 mm 1 m/S 611 mmHg 96%
    Mehr zeigen